Weather History for KHRL - May, 2013

Change the Weather History Date:

Thursday, May 23, 2013

  Actual Average Record
Temperature  
Mean Temperature 83 °F 82 °F  
Max Temperature 91 °F 92 °F 101 °F (1916)
Min Temperature 75 °F 72 °F 56 °F (1894)
Degree Days  
Heating Degree Days 0 0  
Month to date heating degree days 1 0  
Since 1 July heating degree days 404 622  
Cooling Degree Days 18 17  
Month to date cooling degree days 294 348  
Year to date cooling degree days 939 962  
Growing Degree Days 33 (Base 50)    
Moisture  
Dew Point 74 °F    
Average Humidity 75    
Maximum Humidity 94    
Minimum Humidity 56    
Precipitation  
Precipitation 0.00 in 0.09 in 1.73 in (1959)
Month to date precipitation 1.64 1.78  
Year to date precipitation 6.95 7.21  
Sea Level Pressure  
Sea Level Pressure 29.88 in    
Wind  
Wind Speed 11 mph (ESE)    
Max Wind Speed 20 mph    
Max Gust Speed 25 mph    
Visibility 8 miles    
Events      
T = Trace of Precipitation, MM = Missing Value Source: NWS Daily Summary

Daily Weather History Graph

Daily Weather History Graph

Search for Another Location

Airport or City:

Trip Planner

Search our weather history database for the weather conditions in past years. The results will help you decide how hot, cold, wet, or windy it might be!

Date:

Astronomy

May. 23, 2013 Rise Set
Actual Time 6:40 AM CDT 8:14 PM CDT
Civil Twilight 6:15 AM CDT 8:40 PM CDT
Nautical Twilight 5:44 AM CDT 9:10 PM CDT
Astronomical Twilight 5:12 AM CDT 9:42 PM CDT
Moon 6:54 PM CDT (5/23) 5:16 AM CDT (5/23)
Length of Visible Light 14h 24m
Length of Day
13h 34m
Waxing Gibbous, 97% of the Moon is Illuminated
May 23
Waxing Gibbous
May 24
Full
May 31
Last Quarter
Jun 8
New
Jun 16
First Quarter

Hourly Weather History & Observations

Time (CDT) Temp. Heat Index Dew Point Humidity Pressure Visibility Wind Dir Wind Speed Gust Speed Precip Events Conditions
12:14 AM 78.8 °F - 73.4 °F 83% 29.86 in 9.0 mi ESE 6.9 mph - N/A   Partly Cloudy
12:35 AM 78.8 °F - 73.4 °F 83% 29.86 in 9.0 mi SE 8.1 mph - N/A   Mostly Cloudy
12:52 AM 78.1 °F - 73.9 °F 87% 29.86 in 9.0 mi ESE 6.9 mph - N/A   Overcast
1:43 AM 77.0 °F - 73.4 °F 89% 29.84 in 8.0 mi East 5.8 mph - N/A   Scattered Clouds
1:52 AM 75.9 °F - 73.9 °F 94% 29.84 in 7.0 mi East 5.8 mph - N/A   Clear
2:52 AM 75.0 °F - 73.0 °F 94% 29.83 in 5.0 mi East 5.8 mph - N/A   Scattered Clouds
3:00 AM 75.2 °F - 73.4 °F 94% 29.83 in 5.0 mi East 5.8 mph - N/A   Mostly Cloudy
3:39 AM 75.2 °F - 73.4 °F 94% 29.83 in 6.0 mi East 5.8 mph - N/A   Partly Cloudy
3:52 AM 75.9 °F - 73.9 °F 94% 29.83 in 6.0 mi ESE 5.8 mph - N/A   Scattered Clouds
4:10 AM 75.2 °F - 73.4 °F 94% 29.83 in 7.0 mi ESE 5.8 mph - N/A   Mostly Cloudy
4:52 AM 75.9 °F - 73.9 °F 94% 29.85 in 7.0 mi SE 4.6 mph - N/A   Overcast
5:52 AM 75.9 °F - 73.9 °F 94% 29.86 in 6.0 mi Calm Calm - N/A   Mostly Cloudy
6:52 AM 75.9 °F - 73.9 °F 94% 29.88 in 4.0 mi East 4.6 mph - N/A   Overcast
7:30 AM 77.0 °F - 75.2 °F 94% 29.89 in 4.0 mi Calm Calm - N/A   Overcast
7:45 AM 78.8 °F - 75.2 °F 89% 29.88 in 5.0 mi East 4.6 mph - N/A   Overcast
7:52 AM 78.1 °F - 75.9 °F 93% 29.88 in 5.0 mi East 8.1 mph - N/A   Overcast
8:02 AM 78.8 °F - 75.2 °F 89% 29.89 in 6.0 mi East 10.4 mph - N/A   Scattered Clouds
8:52 AM 82.0 °F 88.6 °F 75.0 °F 79% 29.90 in 9.0 mi SE 12.7 mph - N/A   Partly Cloudy
9:26 AM 82.4 °F 88.2 °F 73.4 °F 74% 29.91 in 10.0 mi SE 13.8 mph 19.6 mph N/A   Mostly Cloudy
9:52 AM 82.9 °F 88.8 °F 73.0 °F 72% 29.92 in 10.0 mi SSE 13.8 mph - N/A   Overcast
10:52 AM 84.9 °F 91.4 °F 73.0 °F 67% 29.92 in 10.0 mi SSE 15.0 mph - N/A   Overcast
10:59 AM 84.2 °F 90.9 °F 73.4 °F 70% 29.92 in 9.0 mi SE 13.8 mph 23.0 mph N/A   Overcast
11:52 AM 86.0 °F 93.8 °F 73.9 °F 67% 29.92 in 8.0 mi SE 15.0 mph - N/A   Overcast
12:52 PM 89.1 °F 99.1 °F 75.0 °F 63% 29.91 in 8.0 mi SSE 13.8 mph 20.7 mph N/A   Mostly Cloudy
1:52 PM 90.0 °F 97.9 °F 73.0 °F 57% 29.90 in 8.0 mi SE 16.1 mph - N/A   Mostly Cloudy
2:52 PM 91.0 °F 100.4 °F 73.9 °F 57% 29.89 in 9.0 mi SE 15.0 mph 19.6 mph N/A   Mostly Cloudy
3:52 PM 89.1 °F 98.0 °F 73.9 °F 61% 29.88 in 8.0 mi SE 12.7 mph 21.9 mph N/A   Mostly Cloudy
4:52 PM 89.1 °F 98.0 °F 73.9 °F 61% 29.87 in 8.0 mi SE 13.8 mph 23.0 mph N/A   Mostly Cloudy
5:52 PM 88.0 °F 96.5 °F 73.9 °F 63% 29.86 in 10.0 mi ESE 15.0 mph - N/A   Partly Cloudy
6:52 PM 84.9 °F 91.4 °F 73.0 °F 67% 29.86 in 10.0 mi SE 11.5 mph - N/A   Clear
7:52 PM 82.0 °F 87.4 °F 73.0 °F 74% 29.86 in 10.0 mi SE 15.0 mph - N/A   Clear
8:52 PM 80.1 °F 84.5 °F 73.9 °F 81% 29.86 in 10.0 mi SE 11.5 mph - N/A   Clear
9:50 PM 78.8 °F - 73.4 °F 83% 29.88 in 10.0 mi SE 12.7 mph - N/A   Mostly Cloudy
9:52 PM 79.0 °F - 73.9 °F 84% 29.88 in 10.0 mi SE 11.5 mph - N/A   Mostly Cloudy
10:42 PM 78.8 °F - 73.4 °F 83% 29.92 in 10.0 mi SE 12.7 mph - N/A   Scattered Clouds
10:52 PM 79.0 °F - 73.9 °F 84% 29.93 in 10.0 mi SE 10.4 mph - N/A   Partly Cloudy
10:59 PM 78.8 °F - 73.4 °F 83% 29.94 in 10.0 mi ESE 5.8 mph - N/A   Mostly Cloudy
11:52 PM 79.0 °F - 73.9 °F 84% 29.96 in 10.0 mi SE 8.1 mph - N/A   Mostly Cloudy
11:59 PM 78.8 °F - 75.2 °F 89% 29.96 in 10.0 mi ESE 6.9 mph - N/A   Mostly Cloudy